Location: ?????
(30.2541°N, 31.0910°E)
Time: 02:59:44
(UTC+00:00)

Meteor 1-19 Rocket - Pass Details

Date: 27 September 2022
Orbit: 812 x 922 km, 81.2° (Epoch: 01 December)

Event Time Altitude Azimuth Distance (km) Brightness Sun altitude
Rises 02:39:00 0° 184° (S) 3,385 7.2 -15.4°
Reaches altitude 10° 02:41:26 10° 183° (S) 2,439 6.5 -14.9°
Maximum altitude 02:46:56 83° 96° (E) 833 4.2 -13.7°
Drops below altitude 10° 02:52:22 10° 9° (N) 2,407 6.8 -12.5°
Sets 02:54:45 0° 9° (N) 3,338 7.5 -12.0°
